User: anonymous   Login
Location: Newark
(40.7360°N, 74.1730°W)
Time: 10:03:16
(UTC-04:00)
Language:

ISS - Orbit

View from above orbital plane
View from above orbital plane
View from above satellite
View from above satellite

Ground track
Ground track

The orbit data is extracted from the following two-line orbital elements,

1 25544U 98067A   16211.19678383  .00000860  00000-0  19733-4 0  9997
2 25544  51.6430 208.4229 0002177  86.7981  26.1162 15.54890725 11527
Epoch (UTC): 29 July 2016 04:43:22
Eccentricity: 0.0002177
inclination: 51.6430°
perigee height: 401 km
apogee height: 404 km
right ascension of ascending node: 208.4229°
argument of perigee: 86.7981°
revolutions per day: 15.54890725
mean anomaly at epoch: 26.1162°
orbit number at epoch: 1152

The dashed part of the orbit path shows where the satellite is in the earth's shadow,  

DLR